Weather observations for the past three days for
Bermuda
| Date | Time (adt) | Wind (mph) | Vis. (mi.) | Weather | Sky Cond. | Temperature (ºF) | Relative Humidity | Wind Chill (°F) | Heat Index (°F) | Pressure | Precipitation (in) | ||||||
|---|---|---|---|---|---|---|---|---|---|---|---|---|---|---|---|---|---|
| Air | Dwpt | 6 hour | altimeter (in) | sea level (mb) | 1 hr | 3 hr | 6 hr | ||||||||||
| Max. | Min. | ||||||||||||||||
| 07 | 03:55 | Calm | 0.00 | A Few Clouds | FEW013 | 66.2 | 64.4 | 94% | 0 | 0.0 | |||||||
| 07 | 02:55 | Calm | 0.00 | A Few Clouds | FEW012 | 66.2 | 64.4 | 94% | 0 | 0.0 | |||||||
| 07 | 01:55 | N 2 | 0.00 | A Few Clouds | FEW014 | 68 | 64.4 | 88% | 0 | 0.0 | |||||||
| 07 | 00:55 | N 3 | 0.00 | A Few Clouds | FEW013 | 68 | 64.4 | 88% | 0 | 0.0 | |||||||
| 06 | 23:55 | N 6 | 0.00 | Partly Cloudy | FEW012 SCT026 | 68 | 64.4 | 88% | 0 | 0.0 | |||||||
| 06 | 22:55 | N 7 | 0.00 | Partly Cloudy | SCT012 | 68 | 64.4 | 88% | 0 | 0.0 | |||||||
| 06 | 21:55 | N 8 | 0.00 | A Few Clouds | FEW012 | 68 | 64.4 | 88% | 0 | 0.0 | |||||||
| 06 | 20:55 | N 10 | 0.00 | Partly Cloudy | FEW012 SCT031 | 69.8 | 66.2 | 88% | 0 | 0.0 | |||||||
| 06 | 19:55 | N 9 | 0.00 | Showers in Vicinity | FEW010 SCT034 | 69.8 | 66.2 | 88% | 0 | 0.0 | |||||||
| 06 | 18:55 | N 10 | 0.00 | Light Showers Rain | BKN012 BKN029 | 69.8 | 66.2 | 88% | 0 | 0.0 | |||||||
| 06 | 17:55 | NW 10 | 0.00 | Showers in Vicinity | FEW015 BKN030 | 71.6 | 64.4 | 78% | 0 | 0.0 | |||||||
| 06 | 16:55 | N 9 | 0.00 | A Few Clouds | FEW017 FEW030 | 73.4 | 64.4 | 74% | 0 | 0.0 | |||||||
| 06 | 15:55 | N 10 | 0.00 | Light Drizzle | BKN019 BKN031 | 73.4 | 64.4 | 74% | 0 | 0.0 | |||||||
| 06 | 14:55 | N 9 | 0.00 | Mostly Cloudy | FEW015 BKN029 | 73.4 | 64.4 | 74% | 0 | 0.0 | |||||||
| 06 | 13:55 | NE 10 | 0.00 | A Few Clouds | FEW015 | 73.4 | 66.2 | 78% | 0 | 0.0 | |||||||
| 06 | 12:55 | NE 10 | 0.00 | A Few Clouds | FEW016 | 73.4 | 64.4 | 74% | 0 | 0.0 | |||||||
| 06 | 11:55 | NE 10 | 0.00 | A Few Clouds | FEW013 | 73.4 | 64.4 | 74% | 0 | 0.0 | |||||||
| 06 | 10:55 | NE 12 | 0.00 | Showers in Vicinity | SCT013 BKN035 | 71.6 | 66.2 | 83% | 0 | 0.0 | |||||||
| 06 | 09:55 | NE 7 | 0.00 | Showers in Vicinity | FEW007 BKN029 | 69.8 | 66.2 | 88% | 0 | 0.0 | |||||||
| 06 | 08:55 | N 8 | 0.00 | Showers in Vicinity | FEW009 BKN027 | 69.8 | 66.2 | 88% | 0 | 0.0 | |||||||
| 06 | 07:55 | NW 9 | 0.00 | Showers in Vicinity | BKN008 BKN027 | 68 | 66.2 | 94% | 0 | 0.0 | |||||||
| 06 | 06:55 | N 10 | 0.00 | Showers in Vicinity | FEW008 SCT025 BKN041 | 68 | 64.4 | 88% | 0 | 0.0 | |||||||
| 06 | 05:55 | N 12 | 0.00 | Showers in Vicinity | FEW008 SCT029 | 68 | 64.4 | 88% | 0 | 0.0 | |||||||
| 06 | 04:55 | N 12 | 0.00 | Showers in Vicinity | FEW012 SCT025 BKN048 BKN300 | 68 | 66.2 | 94% | 0 | 0.0 | |||||||
| 06 | 03:55 | N 12 | 0.00 | Showers in Vicinity | FEW011 SCT025 BKN048 BKN300 | 68 | 64.4 | 88% | 0 | 0.0 | |||||||
| 06 | 02:55 | N 7 | 0.00 | Light Showers Rain | SCT019 BKN037 BKN300 | 68 | 64.4 | 88% | 0 | 0.0 | |||||||
| 06 | 01:55 | NE 9 | 0.00 | Showers in Vicinity | FEW008 SCT020 BKN034 BKN300 | 68 | 66.2 | 94% | 0 | 0.0 | |||||||
| 06 | 00:55 | N 8 | 0.00 | Showers Rain | SCT009 BKN036 BKN300 | 68 | 66.2 | 94% | 0 | 0.0 | |||||||
| 05 | 23:55 | NE 8 | 0.00 | Showers Rain | SCT008 BKN027 BKN300 | 68 | 64.4 | 88% | 0 | 0.0 | |||||||
| 05 | 22:55 | NE 9 | 0.00 | Light Showers Rain | FEW010 BKN042 BKN300 | 68 | 64.4 | 88% | 0 | 0.0 | |||||||
| 05 | 21:55 | NE 10 | 0.00 | Mostly Cloudy | FEW012 BKN031 BKN300 | 68 | 64.4 | 88% | 0 | 0.0 | |||||||
| 05 | 20:55 | NE 10 | 0.00 | Mostly Cloudy | FEW011 BKN033 BKN300 | 68 | 64.4 | 88% | 0 | 0.0 | |||||||
| 05 | 19:55 | NE 10 | 0.00 | Mostly Cloudy | BKN009 BKN035 BKN300 | 68 | 66.2 | 94% | 0 | 0.0 | |||||||
| 05 | 18:55 | NE 12 | 0.00 | Showers in Vicinity | SCT008 BKN030 BKN300 | 68 | 64.4 | 88% | 0 | 0.0 | |||||||
| 05 | 17:55 | NE 14 | 0.00 | Mostly Cloudy | SCT010 BKN021 BKN034 BKN300 | 69.8 | 64.4 | 83% | 0 | 0.0 | |||||||
| 05 | 16:55 | NE 14 | 0.00 | Mostly Cloudy | FEW015 BKN025 BKN300 | 69.8 | 62.6 | 78% | 0 | 0.0 | |||||||
| 05 | 15:55 | NE 17 | 0.00 | Mostly Cloudy | FEW014 BKN027 BKN300 | 71.6 | 64.4 | 78% | 0 | 0.0 | |||||||
| 05 | 14:55 | NE 17 | 0.00 | Mostly Cloudy | SCT016 BKN300 | 71.6 | 62.6 | 73% | 0 | 0.0 | |||||||
| 05 | 13:55 | NE 20 | 0.00 | Mostly Cloudy | SCT016 BKN300 | 71.6 | 64.4 | 78% | 0 | 0.0 | |||||||
| 05 | 12:55 | NE 18 | 0.00 | Showers in Vicinity | FEW016 SCT037 BKN300 | 69.8 | 62.6 | 78% | 0 | 0.0 | |||||||
| 05 | 11:55 | E 17 | 0.00 | Showers in Vicinity | SCT015 BKN050 BKN300 | 71.6 | 62.6 | 73% | 0 | 0.0 | |||||||
| 05 | 10:55 | NE 17 | 0.00 | Showers in Vicinity | SCT017 BKN220 BKN300 | 69.8 | 62.6 | 78% | 0 | 0.0 | |||||||
| 05 | 09:55 | NE 14 | 0.00 | Mostly Cloudy | FEW016 FEW043 BKN300 | 68 | 60.8 | 78% | 0 | 0.0 | |||||||
| 05 | 08:55 | NE 12 | 0.00 | Mostly Cloudy | SCT017 BKN035 BKN300 | 68 | 62.6 | 83% | 0 | 0.0 | |||||||
| 05 | 07:55 | NE 12 | 0.00 | Mostly Cloudy | SCT016 BKN030 BKN300 | 68 | 60.8 | 78% | 0 | 0.0 | |||||||
| 05 | 06:55 | NE 8 | 0.00 | Mostly Cloudy | FEW015 SCT027 BKN300 | 64.4 | 60.8 | 88% | 0 | 0.0 | |||||||
| 05 | 05:55 | NE 10 | 0.00 | Partly Cloudy | FEW013 SCT031 | 64.4 | 60.8 | 88% | 0 | 0.0 | |||||||
| 05 | 04:55 | NE 10 | 0.00 | Mostly Cloudy | SCT014 BKN030 | 64.4 | 59 | 83% | 0 | 0.0 | |||||||
| 05 | 03:55 | NE 8 | 0.00 | Mostly Cloudy | SCT014 BKN031 | 64.4 | 60.8 | 88% | 0 | 0.0 | |||||||
| 05 | 02:55 | NE 9 | 0.00 | Mostly Cloudy | FEW014 BKN027 | 64.4 | 60.8 | 88% | 0 | 0.0 | |||||||
| 05 | 01:55 | N 9 | 0.00 | Mostly Cloudy | FEW008 SCT021 BKN052 | 64.4 | 60.8 | 88% | 0 | 0.0 | |||||||
| 05 | 00:55 | NE 7 | 0.00 | Mostly Cloudy | BKN025 BKN054 BKN300 | 64.4 | 60.8 | 88% | 0 | 0.0 | |||||||
| 04 | 23:55 | NE 7 | 0.00 | Overcast | FEW013 OVC023 | 62.6 | 59 | 88% | 0 | 0.0 | |||||||
| 04 | 22:55 | NE 7 | 0.00 | Light Rain | FEW013 BKN028 OVC300 | 62.6 | 57.2 | 83% | 0 | 0.0 | |||||||
| 04 | 21:55 | E 5 | 0.00 | Light Rain | SCT014 BKN026 OVC300 | 62.6 | 59 | 88% | 0 | 0.0 | |||||||
| 04 | 20:55 | E 7 | 0.00 | Light Rain | SCT016 BKN033 OVC120 | 62.6 | 59 | 88% | 0 | 0.0 | |||||||
| 04 | 19:55 | E 8 | 0.00 | Light Rain | FEW025 BKN038 OVC120 | 62.6 | 57.2 | 83% | 0 | 0.0 | |||||||
| 04 | 18:55 | E 7 | 0.00 | Light Rain | FEW047 BKN061 OVC110 | 64.4 | 57.2 | 78% | 0 | 0.0 | |||||||
| 04 | 17:55 | E 7 | 0.00 | Light Rain | FEW033 BKN061 OVC110 | 64.4 | 55.4 | 73% | 0 | 0.0 | |||||||
| 04 | 16:55 | E 12 | 0.00 | Light Rain | FEW036 SCT056 OVC110 | 64.4 | 55.4 | 73% | 0 | 0.0 | |||||||
| 04 | 15:55 | E 10 | 0.00 | Overcast | FEW037 SCT061 BKN140 OVC300 | 66.2 | 51.8 | 60% | 0 | 0.0 | |||||||
| 04 | 14:55 | NE 12 | 0.00 | Overcast | SCT037 BKN070 BKN160 OVC300 | 66.2 | 51.8 | 60% | 0 | 0.0 | |||||||
| 04 | 13:55 | NE 10 | 0.00 | Overcast | SCT037 SCT070 BKN190 OVC300 | 66.2 | 51.8 | 60% | 0 | 0.0 | |||||||
| 04 | 12:55 | NE 12 | 0.00 | Overcast | SCT034 BKN160 OVC300 | 66.2 | 51.8 | 60% | 0 | 0.0 | |||||||
| 04 | 11:55 | NE 12 | 0.00 | Overcast | SCT034 SCT130 OVC300 | 66.2 | 53.6 | 64% | 0 | 0.0 | |||||||
| 04 | 10:55 | NE 10 | 0.00 | Overcast | FEW037 SCT170 OVC300 | 66.2 | 51.8 | 60% | 0 | 0.0 | |||||||
| 04 | 09:55 | NE 10 | 0.00 | Overcast | FEW037 BKN170 BKN200 OVC300 | 64.4 | 50 | 60% | 0 | 0.0 | |||||||
| 04 | 08:55 | N 13 | 0.00 | Overcast | FEW043 SCT180 OVC300 | 64.4 | 50 | 60% | 0 | 0.0 | |||||||
| 04 | 07:55 | N 13 | 0.00 | Mostly Cloudy | FEW041 FEW170 BKN220 BKN300 | 64.4 | 51.8 | 64% | 0 | 0.0 | |||||||
| 04 | 06:55 | N 13 | 0.00 | Mostly Cloudy | SCT039 SCT110 BKN180 BKN300 | 64.4 | 50 | 60% | 0 | 0.0 | |||||||
| 04 | 05:55 | N 15 | 0.00 | Overcast | FEW040 FEW100 BKN160 OVC300 | 64.4 | 50 | 60% | 0 | 0.0 | |||||||
| 04 | 04:55 | N 14 | 0.00 | Overcast | FEW039 FEW100 BKN170 OVC230 | 64.4 | 51.8 | 64% | 0 | 0.0 | |||||||
| Date | Time (adt) | Wind (mph) | Vis. (mi.) | Weather | Sky Cond. | Air | Dwpt | Max. | Min. | Relative Humidity | Wind Chill (°F) | Heat Index (°F) | altimeter (in) | sea level (mb) | 1 hr | 3 hr | 6 hr |
| 6 hour | |||||||||||||||||
| Temperature (ºF) | Pressure | Precipitation (in) | |||||||||||||||